Weather History for Kaneohe MCBH, HI

Change the Weather History Date:

Friday, May 10, 2013

  Actual Average Record
Temperature  
Mean Temperature 78 °F -  
Max Temperature 82 °F 76 °F 82 °F (2005)
Min Temperature 73 °F 69 °F 69 °F (1997)
Cooling Degree Days 12    
Growing Degree Days 28 (Base 50)    
Moisture  
Dew Point 71 °F    
Average Humidity 86    
Maximum Humidity 95    
Minimum Humidity 66    
Precipitation  
Precipitation 0.22 in - - ()
Sea Level Pressure  
Sea Level Pressure 30.08 in    
Wind  
Wind Speed 5 mph (NNE)    
Max Wind Speed 13 mph    
Max Gust Speed 18 mph    
Visibility 8 miles    
Events Rain    
Averages and records for this station are not official NWS values.
T = Trace of Precipitation, MM = Missing Value Source: NWS Daily Summary

Daily Weather History Graph

Daily Weather History Graph

Search for Another Location

Airport:

Trip Planner

Search our weather history database for the weather conditions in past years. The results will help you decide how hot, cold, wet, or windy it might be!

Date:

Astronomy

May. 10, 2013 Rise Set
Actual Time 5:54 AM HST 7:00 PM HST
Civil Twilight 5:30 AM HST 7:24 PM HST
Nautical Twilight 5:02 AM HST 7:52 PM HST
Astronomical Twilight 4:34 AM HST 8:21 PM HST
Moon 6:28 AM HST (5/10) 7:56 PM HST (5/10)
Length of Visible Light 13h 53m
Length of Day
13h 05m
New Moon, 1% of the Moon is Illuminated
May 10
New Moon
May 17
First Quarter
May 24
Full
May 31
Last Quarter
Jun 8
New

Hourly Weather History & Observations

Time (HST) Temp. Heat Index Dew Point Humidity Pressure Visibility Wind Dir Wind Speed Gust Speed Precip Events Conditions
12:57 AM 73.4 °F - 71.1 °F 92% 30.07 in 10.0 mi Calm Calm - N/A   Clear
1:57 AM 73.4 °F - 71.1 °F 92% 30.05 in 10.0 mi North 6.9 mph - N/A   Scattered Clouds
2:04 AM 73.4 °F - 71.6 °F 94% 30.06 in 6.2 mi North 6.9 mph - N/A   Overcast
2:46 AM 73.4 °F - 71.6 °F 94% 30.05 in 6.2 mi North 3.5 mph - N/A   Scattered Clouds
2:55 AM 73.4 °F - 71.6 °F 94% 30.05 in 6.2 mi North 3.5 mph - N/A   Mostly Cloudy
2:57 AM 73.4 °F - 72.0 °F 95% 30.04 in 10.0 mi North 4.6 mph - N/A   Mostly Cloudy
3:57 AM 73.4 °F - 71.1 °F 92% 30.03 in 10.0 mi WNW 3.5 mph - N/A   Overcast
4:57 AM 73.4 °F - 72.0 °F 95% 30.04 in 10.0 mi WNW 4.6 mph - N/A   Mostly Cloudy
5:47 AM 73.4 °F - 71.6 °F 94% 30.05 in 6.2 mi WNW 4.6 mph - N/A   Overcast
5:57 AM 73.4 °F - 72.0 °F 95% 30.04 in 10.0 mi WNW 5.8 mph - N/A   Overcast
6:11 AM - - - N/A% 30.06 in 6.2 mi NW 4.6 mph - N/A   Overcast
6:57 AM 73.4 °F - 72.0 °F 95% 30.06 in 10.0 mi ENE 4.6 mph - 0.06 in   Overcast
7:42 AM 73.4 °F - 71.6 °F 94% 30.09 in 2.5 mi North 3.5 mph - 0.10 in Rain Light Rain
7:57 AM 73.4 °F - 71.1 °F 92% 30.08 in 2.5 mi NNE 3.5 mph - 0.11 in Rain Light Rain
8:11 AM 73.4 °F - 71.6 °F 94% 30.10 in 6.0 mi Calm Calm - 0.01 in Rain Light Rain
8:30 AM 73.4 °F - 71.6 °F 94% 30.10 in 6.0 mi Calm Calm - 0.02 in Rain Light Rain
8:57 AM 73.4 °F - 71.1 °F 92% 30.09 in 6.0 mi Calm Calm - 0.02 in   Overcast
9:57 AM 73.4 °F - 72.0 °F 95% 30.09 in 10.0 mi WSW 3.5 mph - N/A   Overcast
10:57 AM 78.8 °F - 71.1 °F 77% 30.10 in 10.0 mi Calm Calm - N/A   Mostly Cloudy
11:57 AM 78.8 °F - 70.0 °F 74% 30.09 in 10.0 mi Variable 3.5 mph - N/A   Overcast
12:57 PM 82.4 °F 86.7 °F 71.1 °F 68% 30.07 in 10.0 mi NNE 4.6 mph - N/A   Overcast
1:57 PM 82.4 °F 86.3 °F 70.0 °F 66% 30.06 in 10.0 mi NE 4.6 mph - N/A   Overcast
2:22 PM 82.4 °F 86.3 °F 69.8 °F 66% 30.07 in 6.2 mi NE 6.9 mph - N/A   Overcast
2:34 PM 82.4 °F 86.3 °F 69.8 °F 66% 30.07 in 10.0 mi NE 6.9 mph - N/A   Overcast
2:57 PM 82.4 °F 86.3 °F 70.0 °F 66% 30.06 in 10.0 mi North 12.7 mph - 0.01 in Rain Rain
3:04 PM 80.6 °F 85.4 °F 73.4 °F 79% 30.07 in 6.2 mi North 8.1 mph - 0.01 in Rain Light Rain
3:27 PM 77.0 °F - 73.4 °F 89% 30.06 in 6.2 mi North 6.9 mph - 0.01 in   Overcast
3:43 PM 77.0 °F - 73.4 °F 89% 30.06 in 6.2 mi NNE 10.4 mph - 0.01 in   Overcast
3:45 PM - - - N/A% - - North - - N/A   Unknown
3:57 PM 77.0 °F - 73.9 °F 90% 30.05 in 10.0 mi NNE 11.5 mph - 0.01 in Rain Light Rain
4:20 PM 77.0 °F - 73.4 °F 89% 30.06 in 6.2 mi NNE 11.5 mph - 0.01 in Rain Light Rain
4:57 PM 77.0 °F - 73.9 °F 90% 30.04 in 10.0 mi NNE 9.2 mph - 0.01 in   Mostly Cloudy
5:57 PM 77.0 °F - 72.0 °F 84% 30.05 in 10.0 mi NE 9.2 mph - N/A   Overcast
6:06 PM 77.0 °F - 71.6 °F 83% 30.07 in 6.2 mi NNE 12.7 mph 18.4 mph N/A   Overcast
6:57 PM 77.0 °F - 72.0 °F 84% 30.07 in 10.0 mi NE 9.2 mph - N/A   Overcast
7:11 PM - - - N/A% - - North - - N/A   Unknown
7:57 PM 77.0 °F - 70.0 °F 79% 30.09 in 10.0 mi ENE 9.2 mph - N/A   Overcast
8:57 PM 75.2 °F - 70.0 °F 84% 30.12 in 10.0 mi NE 11.5 mph - N/A   Overcast
9:57 PM 73.4 °F - 70.0 °F 89% 30.13 in 10.0 mi ENE 8.1 mph - N/A   Mostly Cloudy
10:31 PM 73.4 °F - 69.8 °F 88% 30.15 in 6.2 mi NE 11.5 mph 17.3 mph N/A   Mostly Cloudy
10:53 PM 73.4 °F - 69.8 °F 88% 30.14 in 6.2 mi NE 11.5 mph 18.4 mph 0.00 in Rain Light Rain
10:57 PM 73.4 °F - 69.1 °F 86% 30.13 in 10.0 mi NE 10.4 mph 18.4 mph 0.00 in Rain Light Rain
11:57 PM 73.4 °F - 70.0 °F 89% 30.12 in 10.0 mi NE 11.5 mph 17.3 mph 0.00 in   Mostly Cloudy